Location: Harwich
(41.7160°N, 69.9939°W)
Time: 20:05:47
(UTC+01:00)

Tiros 1 despin weight - Visible Passes

Search period start: 30 January 2023 00:00
Search period end: 09 February 2023 00:00
Orbit: 589 x 636 km, 48.2° (Epoch: 30 January)

Date Brightness Start Highest point End Pass type
(mag) Time Alt. Az. Time Alt. Az. Time Alt. Az.
30 Jan ? 00:49:26 10° W 00:53:51 52° NNW 00:54:25 48° N visible
30 Jan ? 23:22:33 10° SW 23:27:06 80° SSE 23:31:36 10° ENE visible
31 Jan ? 01:04:33 10° W 01:08:42 40° NNW 01:08:42 40° NNW visible
31 Jan ? 23:37:23 10° WSW 23:41:55 66° NNW 23:45:59 12° ENE visible
01 Feb ? 01:19:41 10° WNW 01:22:56 32° NNW 01:22:56 32° NNW visible
01 Feb ? 23:52:25 10° W 23:56:49 47° NNW 00:00:12 16° NE visible
02 Feb ? 01:34:43 10° WNW 01:37:08 26° NW 01:37:08 26° NW visible
03 Feb ? 00:07:32 10° WNW 00:11:48 38° N 00:14:23 20° NE visible
03 Feb ? 01:49:39 10° WNW 01:51:20 21° NW 01:51:20 21° NW visible
04 Feb ? 00:22:38 10° WNW 00:26:49 35° N 00:28:35 26° NE visible
04 Feb ? 02:04:28 10° WNW 02:05:32 17° NW 02:05:32 17° NW visible
05 Feb ? 00:37:38 10° WNW 00:41:51 37° N 00:42:47 33° NE visible
05 Feb ? 02:19:13 10° WNW 02:19:44 13° WNW 02:19:44 13° WNW visible
06 Feb ? 00:52:30 10° WNW 00:56:50 43° NNE 00:57:01 43° NNE visible
06 Feb ? 23:25:32 10° WNW 23:29:45 35° N 23:33:54 10° ENE visible
07 Feb ? 01:07:17 10° WNW 01:11:17 55° N 01:11:17 55° N visible
07 Feb ? 23:40:29 10° WNW 23:44:46 38° N 23:48:39 12° ENE visible
08 Feb ? 01:22:02 10° WNW 01:25:36 55° WNW 01:25:36 55° WNW visible
